Weather History for Kahului, HI

Change the Weather History Date:

Tuesday, December 14, 2010

  Actual Average Record
Temperature  
Mean Temperature 75 °F 73 °F  
Max Temperature 87 °F 82 °F 87 °F (1991)
Min Temperature 63 °F 65 °F 57 °F (2002)
Degree Days  
Heating Degree Days 0 0  
Month to date heating degree days 0 0  
Since 1 July heating degree days 0 0  
Cooling Degree Days 10 8  
Month to date cooling degree days 120 127  
Year to date cooling degree days 3823 3834  
Growing Degree Days 24 (Base 50)    
Moisture  
Dew Point 66 °F    
Average Humidity 74    
Maximum Humidity 93    
Minimum Humidity 55    
Precipitation  
Precipitation T in 0.12 in 1.00 in (1996)
Month to date precipitation 1.73 1.47  
Year to date precipitation 7.65 15.95  
Snow  
Snow 0.00 in - - ()
Month to date snowfall 0.0  
Since 1 July snowfall 0.0  
Snow Depth 0.00 in    
Sea Level Pressure  
Sea Level Pressure 30.02 in    
Wind  
Wind Speed 7 mph (East)    
Max Wind Speed 18 mph    
Max Gust Speed 23 mph    
Visibility 9 miles    
Events      
T = Trace of Precipitation, MM = Missing Value Source: NWS Daily Summary

Daily Weather History Graph

Daily Weather History Graph

Search for Another Location

Airport:

Trip Planner

Search our weather history database for the weather conditions in past years. The results will help you decide how hot, cold, wet, or windy it might be!

Date:

Astronomy

Dec. 14, 2010 Rise Set
Actual Time 6:54 AM HST 5:46 PM HST
Civil Twilight 6:30 AM HST 6:10 PM HST
Nautical Twilight 6:02 AM HST 6:38 PM HST
Astronomical Twilight 5:35 AM HST 7:05 PM HST
Moon 1:00 PM HST (12/14) 1:00 AM HST (12/14)
Length of Visible Light 11h 40m
Length of Day
10h 52m
Waxing Gibbous, 63% of the Moon is Illuminated
Dec 14
Waxing Gibbous
Dec 20
Full
Dec 27
Last Quarter
Jan 3
New
Jan 12
First Quarter

Hourly Weather History & Observations

Time (HST) Temp. Heat Index Dew Point Humidity Pressure Visibility Wind Dir Wind Speed Gust Speed Precip Events Conditions
12:54 AM 68.0 °F - 64.9 °F 90% 30.03 in 7.0 mi SSE 4.6 mph - N/A   Clear
1:54 AM 68.0 °F - 64.0 °F 87% 30.03 in 8.0 mi SE 3.5 mph - N/A   Clear
2:54 AM 68.0 °F - 64.9 °F 90% 30.03 in 8.0 mi ESE 3.5 mph - N/A   Clear
3:54 AM 68.0 °F - 64.0 °F 87% 30.03 in 10.0 mi Calm Calm - N/A   Clear
4:54 AM 66.9 °F - 63.0 °F 87% 30.04 in 8.0 mi ESE 4.6 mph - N/A   Clear
5:54 AM 66.0 °F - 63.0 °F 90% 30.05 in 8.0 mi ESE 4.6 mph - N/A   Clear
6:54 AM 64.0 °F - 61.0 °F 90% 30.05 in 6.0 mi SSE 4.6 mph - N/A   Haze
7:54 AM 66.9 °F - 64.0 °F 90% 30.06 in 8.0 mi SSE 3.5 mph - N/A   Haze
8:54 AM 73.0 °F - 66.9 °F 81% 30.07 in 9.0 mi Calm Calm - N/A   Haze
9:54 AM 78.1 °F - 66.9 °F 68% 30.08 in 10.0 mi NNW 5.8 mph - N/A   Haze
10:54 AM 81.0 °F 84.4 °F 69.8 °F 69% 30.06 in 10.0 mi Variable 3.5 mph - N/A   Haze
11:54 AM 84.0 °F 87.0 °F 68.0 °F 58% 30.02 in 10.0 mi NNE 13.8 mph - 0.00 in   Haze
12:54 PM 84.0 °F 87.0 °F 68.0 °F 58% 29.97 in 10.0 mi NE 16.1 mph 23.0 mph N/A   Haze
1:54 PM 84.9 °F 87.6 °F 66.9 °F 55% 29.94 in 10.0 mi NE 17.3 mph - N/A   Scattered Clouds
2:54 PM 84.2 °F 88.4 °F 69.8 °F 62% 29.93 in 10.0 mi NE 15.0 mph - N/A   Partly Cloudy
3:54 PM 84.9 °F 88.2 °F 68.0 °F 57% 29.94 in 10.0 mi NE 12.7 mph - N/A   Partly Cloudy
4:54 PM 80.1 °F 82.3 °F 66.9 °F 64% 29.96 in 10.0 mi NE 13.8 mph 21.9 mph N/A   Partly Cloudy
5:54 PM 75.9 °F - 66.0 °F 71% 29.97 in 10.0 mi ENE 12.7 mph - N/A   Partly Cloudy
6:54 PM 75.0 °F - 68.0 °F 79% 30.01 in 10.0 mi East 8.1 mph - N/A   Clear
7:54 PM 73.9 °F - 64.0 °F 71% 30.03 in 10.0 mi East 4.6 mph - N/A   Clear
8:54 PM 73.0 °F - 64.0 °F 73% 30.05 in 10.0 mi ENE 8.1 mph - N/A   Partly Cloudy
9:54 PM 73.0 °F - 66.0 °F 79% 30.05 in 10.0 mi ENE 10.4 mph - N/A   Clear
10:54 PM 73.0 °F - 64.9 °F 76% 30.05 in 10.0 mi ENE 9.2 mph - N/A   Clear
11:54 PM 69.1 °F - 64.0 °F 84% 30.04 in 10.0 mi SE 5.8 mph - N/A   Partly Cloudy